{"data":{"norad_id":48582,"epoch":"2026-05-25T04:36:53.650368Z","epoch_age_seconds":58712,"freshness":"FRESH","line1":"1 48582U 21041AF  26145.19228762  .00101935  00000+0  37526-2 0  9993","line2":"2 48582  53.0522 109.1912 0001377 113.3164 246.7979 15.27037143277289","mean_motion":15.27037143,"eccentricity":0.0001377,"inclination_deg":53.0522,"raan_deg":109.1912,"arg_perigee_deg":113.3164,"mean_anomaly_deg":246.7979,"bstar":0.0037526,"rev_number":27728,"period_min":94.300260252412,"perigee_km":483.73007749899,"apogee_km":485.62009594767,"semimajor_km":6862.8120867233,"source":"CELESTRAK","updated_at":"2026-05-25T13:38:16.749932Z"}}